SCP
0 0 0 0 0 0 0 0 0 0 0 0 0 0 0 0 0 0 0 0 0 0 0 0 0 0 0 0 0 0 0 0 0 0 0 0 0 0
0 0 0 0 0 0 0 0 0 0 0 0 0 0 0 0 0 0 0 0 0 0 0 0 0 0 0 0 0 0 0 0 0 0 0 0 0 0
0 0 0 0 0 0 0 0 0 0 0 0 0 0 0 0 0 0 0 0 0 0 0 0 0 0 0 0 0 0 0 0 0 0 0 0 0 0
0 0 0 0 0 0 0 0 0 0 0 0 0 0 0 0 0 0 0 0 0 0 0 0 0 0 0 0 0 0 0 0 0 0 0 0 0 0
0 0 0 0 0 0 0 0 0 0 0 0 0 0 0 0 0 0 0 0 0 0 0 0 0 0 0 0 0 0 0 0 0 0 0 0 0 0
0 0 0 0 0 0 0 0 0 0 0 0 0 0 0 0 0 0 0 0 0 0 0 0 0 0 0 0 0 0 0 0 0 0 0 0 0 0
0 0 0 0 0 0 0 0 0 0 0 0 0 0 0 0 0 0 0 0 0 0 0 0 0 0 0 0 0 0 0 0 0 0 0 0 0 0
0 0 0 0 0 0 0 0 0 0 0 0 0 0 0 0 0 0 0 0 0 0 0 0 0 0 0 0 0 0 0 0 0 0 0 0 0 0
0 0 0 0 0 0 0 0 0 0 0 0 0 0 0 0 0 0 0 0 0 0 0 0 0 0 0 0 0 0 0 0 0 0 0 0 0 0
0 0 0 0 0 0 0 0 0 0 0 0 0 0 0 0 0 0 0 0 0 0 0 0 0 0 0 0 0 0 0 0 0 0 0 0 0 0
0 0 0 0 0 0 0 0 0 0 0 0 0 0 0 0 0 0 0 0 0 0 0 0 0 0 0 0 0 0 0 0 0 0 0 0 0 0
0 0 0 0 0 0 0 0 0 0 0 0 0 0 0 0 0 0 0 0 0 0 0 0 0 0 0 0 0 0 0 0 0 0 0 0 0 0
0 0 0 0 0 0 0 0 0 0 0 0 0 0 0 0 0 0 0 0 0 0 0 0 0 0 0 0 0 0 0 0 0 0 0 0 0 0
0 0 0 0 0 0 0 0 0 0 0 0 0 0 0 0 0 0 0 0 0 0 0 0 0 0 0 0 0 0 0 0 0 0 0 0 0 0
0 0 0 0 0 0 0 0 0 0 0 0 0 0 0 0 0 0 0 0 0 0 0 0 0 0 0 0 0 0 0 0 0 0 0 0 0 0
0 0 0 0 0 0 0 0 0 0 0 0 0 0 0 0 0 0 0 0 0 0 0 0 0 0 0 0 0 0 0 0 0 0 0 0 0 0
0 0 0 0 0 0 0 0 0 0 0 0 0 0 0 0 0 0 0 0 0 0 0 0 0 0 0 0 0 0 0 0 0 0 0 0 0 0
0 0 0 0 0 0 0 0 0 0 0 0 0 0 0 0 0 0 0 0 0 0 0 0 0 0 0 0 0 0 0 0 0 0 0 0 0 0
0 0 0 0 0 0 0 0 0 0 0 0 0 0 0 0 0 0 0 0 0 0 0 0 0 0 0 0 0 0 0 0 0 0 0 0 0 0
0 0 0 0 0 0 0 0 0 0 0 0 0 0 0 0 0 0 0 0 0 0 0 0 0 0 0 0 0 0 0 0 0 0 0 0 0 0
0 0 0 0 0 0 0 0 0 0 0 0 0 0 0 0 0 0 0 0 0 0 0 0 0 0 0 0 0 0 0 0 0 0 0 0 0 0
0 0 0 0 0 0 0 0 0 0 0 0 0 0 0 0 0 0 0 0 0 0 0 0 0 0 0 0 0 0 0 0 0 0 0 0 0 0
0 0 0 0 0 0 0 0 0 0 0 0 0 0 0 0 0 0 0 0 0 0 0 0 0 0 0 0 0 0 0 0 0 0 0 0 0 0
Wind_Speed
6 6 4 4 4 4 4 4 5 7 6 3 3 3 4 6 6 9 11 10 12 15 17 17 18 18 19 20 20 21 22 22 23 24 24 25 25 25
5 5 4 4 4 3 4 4 5 7 8 6 5 6 7 9 9 11 12 12 16 18 17 16 17 18 19 20 21 22 22 22 23 24 24 24 25 25
5 5 5 5 5 5 4 4 5 6 8 8 7 7 9 11 10 11 11 12 10 11 12 14 16 18 19 20 20 21 21 22 22 23 23 24 24 24
6 5 5 4 5 5 5 6 5 6 8 10 9 9 10 11 11 11 11 10 11 9 10 14 17 18 17 18 18 18 18 19 21 22 22 23 24 24
6 6 6 6 6 6 7 7 6 6 7 9 10 9 9 9 11 11 12 9 11 10 10 14 15 15 15 16 17 17 16 16 18 19 20 21 22 22
6 6 6 7 7 8 7 7 7 8 8 9 9 9 9 10 9 9 10 9 10 11 11 10 11 13 16 18 18 17 15 15 15 16 17 18 19 20
6 6 6 5 6 7 8 9 9 8 9 9 9 9 9 9 9 9 10 10 11 10 9 9 9 9 10 10 11 11 10 12 13 14 15 16 16 17
7 7 6 4 4 7 8 9 11 11 11 11 10 11 12 11 10 9 9 10 10 8 10 11 10 9 9 8 4 4 8 11 12 13 14 14 15 15
7 7 7 6 7 8 7 10 12 13 14 11 12 13 12 11 11 11 10 11 11 11 10 10 9 9 9 7 3 6 9 11 12 12 13 13 13 14
7 7 8 8 7 9 12 12 11 9 8 9 9 11 11 10 10 10 11 11 11 8 7 9 9 9 10 8 2 5 9 11 11 12 12 12 12 13
7 7 7 8 7 8 11 12 12 10 6 8 10 13 14 14 11 9 9 8 9 9 6 7 8 10 10 8 5 5 8 9 10 11 11 11 11 11
7 6 1 4 8 9 10 10 11 10 10 9 8 9 10 10 12 10 8 8 8 7 5 5 6 7 6 7 9 8 7 6 8 8 9 9 9 8
7 7 5 6 10 11 11 9 9 11 11 10 8 7 6 4 4 5 5 6 7 7 6 5 6 6 5 6 7 8 8 7 7 5 4 5 6 6
8 7 8 11 14 14 10 8 11 12 8 7 6 5 5 5 5 5 5 6 6 7 7 6 5 6 6 6 5 8 8 7 7 6 6 5 4 4
7 8 11 13 13 10 7 10 10 7 6 6 6 6 6 6 6 5 5 5 5 4 4 5 5 5 5 5 6 6 6 6 7 7 6 6 6 5
7 7 9 11 9 7 7 6 5 5 6 7 7 7 6 6 5 5 5 5 5 5 5 5 4 4 5 7 6 7 7 6 6 6 5 5 6 6
10 7 5 5 6 6 6 6 6 6 6 6 6 7 7 6 6 5 5 5 6 6 7 6 4 3 5 7 7 7 7 6 6 6 5 6 6 7
9 5 6 6 7 8 8 8 7 8 8 8 8 7 7 7 7 6 6 6 6 6 7 7 7 5 3 4 6 9 7 6 7 7 6 5 6 6
5 5 6 7 7 8 8 8 8 8 8 8 8 8 8 8 7 7 7 6 6 6 6 7 7 7 7 6 5 7 8 7 6 5 5 5 5 5
6 6 7 7 8 8 9 9 9 8 8 8 9 9 8 8 7 7 7 8 7 7 6 7 7 7 6 6 4 5 8 8 7 7 6 3 3 3
7 7 7 7 8 8 8 8 9 8 9 9 8 9 9 8 8 7 7 6 6 7 7 7 6 3 3 4 4 5 5 6 7 8 9 6 5 7
8 8 7 8 8 8 9 9 9 9 9 9 9 9 8 8 8 8 8 7 6 7 7 6 5 5 5 6 6 6 6 5 5 7 10 10 7 6
7 8 8 8 8 9 9 10 11 10 9 9 9 9 8 8 8 7 8 8 7 8 7 6 5 5 6 6 6 6 8 7 5 6 7 5 3 2
Wind_Direction
58 53 40 37 20 9 349 331 317 305 295 270 270 279 289 302 316 298 297 296 293 288 286 286 286 286 286 285 284 283 283 282 281 279 279 278 278 278
46 42 23 15 6 347 338 329 320 309 304 313 311 314 325 309 297 295 290 282 265 262 266 274 280 283 283 283 282 282 282 281 280 279 279 279 278 278
28 25 17 359 343 332 326 317 312 310 304 305 308 310 302 296 301 299 295 290 284 251 248 264 274 278 280 280 281 281 281 281 281 281 281 280 280 279
18 5 355 346 338 320 326 318 315 314 299 303 305 301 301 301 298 299 296 295 297 287 248 256 266 271 273 275 277 278 279 279 280 280 280 279 278 277
11 358 348 341 330 334 321 315 313 306 300 296 298 303 300 302 305 298 299 301 298 300 272 253 258 260 262 264 266 268 268 269 273 276 277 276 276 275
8 353 343 340 335 329 312 308 307 303 296 291 294 299 302 307 306 305 308 310 309 308 303 295 280 259 256 255 256 259 262 264 267 271 274 274 273 273
357 345 343 338 331 319 317 321 314 307 302 299 300 303 307 313 312 314 312 311 306 304 306 305 302 297 291 273 257 258 265 270 273 275 275 272 269 268
347 339 325 300 326 281 272 284 293 295 304 305 302 304 308 311 316 313 310 309 307 313 313 309 307 305 305 303 310 289 281 282 284 282 278 274 271 268
336 331 330 344 315 324 309 279 268 254 255 277 291 297 305 312 314 311 309 306 305 309 307 306 312 313 310 310 296 284 284 286 289 289 285 280 275 271
328 326 324 325 350 341 318 309 306 301 288 276 288 296 301 308 307 299 296 294 294 301 314 312 321 321 317 317 293 270 282 287 290 292 292 287 281 275
328 327 325 325 27 340 309 306 311 315 296 258 263 272 277 276 276 287 294 300 311 320 336 323 323 323 317 319 329 300 289 288 293 296 298 296 293 284
329 325 331 343 339 318 307 307 312 320 321 312 285 265 262 256 238 252 285 303 313 314 336 326 318 326 315 320 332 337 334 323 301 298 306 310 308 297
329 332 1 3 327 313 299 295 308 309 302 301 301 300 294 285 267 258 277 294 306 310 324 326 311 319 307 310 324 340 344 344 341 341 336 337 330 321
319 333 344 335 318 306 300 308 302 291 289 302 307 314 319 323 321 313 305 297 286 292 306 311 303 317 319 323 328 333 342 351 349 349 359 1 347 331
319 320 304 298 298 294 274 284 288 293 312 318 323 328 328 326 316 310 314 317 316 312 313 318 320 324 337 340 335 335 337 347 353 356 8 16 10 5
321 309 282 274 275 295 304 299 304 323 323 322 323 324 325 326 325 334 346 346 352 5 11 3 353 355 6 4 352 346 348 346 348 358 10 24 21 16
323 313 335 347 349 353 348 344 340 340 337 337 335 337 340 344 350 357 360 351 360 7 9 16 22 58 58 19 2 354 349 350 351 354 9 30 31 23
306 337 357 359 355 351 351 352 355 355 352 349 348 349 350 352 355 0 10 8 10 15 14 14 13 22 46 77 33 359 353 352 351 360 10 23 32 27
319 4 4 359 355 352 353 355 356 357 351 350 354 355 354 354 359 6 14 16 18 21 21 22 22 16 18 25 43 27 359 352 351 0 8 13 24 33
12 9 3 359 356 354 354 355 353 354 355 352 357 359 357 356 1 8 17 14 14 21 28 29 29 22 20 19 16 28 25 12 2 358 356 359 45 84
11 8 4 359 355 352 351 352 351 353 358 353 358 357 357 359 4 10 17 18 6 19 26 32 34 14 16 32 36 39 54 58 34 17 3 5 29 37
6 360 356 354 354 351 351 354 354 357 358 358 358 356 356 358 3 10 11 10 15 21 24 27 29 33 35 40 39 40 51 79 95 74 52 32 24 26
359 350 345 353 358 354 356 354 353 357 0 359 355 352 354 359 1 8 11 12 13 15 19 23 26 33 39 43 47 48 52 55 59 58 60 54 63 81